FW5778 Weather Reports


time (UTC)temp
F
wind
direction
speed
knots
gust
knots
rain 1hr
in
rain 24hr
in
rain mn
in
humidity
%
barometer
mb
20260509005545 76 319 2.6 6.1 0.00 0.00 0.00 18 1014.0
20260509005048 76 46 1.7 6.1 0.00 0.00 0.00 18 1014.0
20260509004544 76 12 1.7 8.7 0.00 0.00 0.00 18 1014.0
20260509004044 76 44 5.2 8.7 0.00 0.00 0.00 18 1014.1
20260509003543 75 37 6.1 8.7 0.00 0.00 0.00 19 1014.1
20260509003047 75 337 2.6 7.0 0.00 0.00 0.00 19 1014.2
20260509002543 75 360 2.6 6.1 0.00 0.00 0.00 19 1014.2
20260509002042 75 37 3.5 9.6 0.00 0.00 0.00 19 1014.2
20260509001544 75 17 4.3 9.6 0.00 0.00 0.00 19 1014.3
20260509001042 75 25 5.2 9.6 0.00 0.00 0.00 19 1014.3
20260509000544 75 3 4.3 10.4 0.00 0.00 0.00 19 1014.3
20260509000043 75 2 3.5 8.7 0.00 0.00 0.00 19 1014.4
20260508235540 75 46 5.2 10.4 0.00 0.00 0.00 19 1014.4
20260508235039 75 9 4.3 10.4 0.00 0.00 0.00 19 1014.4
20260508234541 75 30 4.3 9.6 0.00 0.00 0.00 19 1014.4
20260508234039 75 15 2.6 12.2 0.00 0.00 0.00 19 1014.4
20260508233539 75 332 7.0 12.2 0.00 0.00 0.00 19 1014.4
20260508233041 75 10 5.2 9.6 0.00 0.00 0.00 19 1014.5
20260508232539 75 309 7.0 9.6 0.00 0.00 0.00 18 1014.5
20260508232041 75 333 3.5 8.7 0.00 0.00 0.00 19 1014.5
20260508231539 75 26 5.2 11.3 0.00 0.00 0.00 19 1014.5
20260508231036 75 59 7.8 11.3 0.00 0.00 0.00 19 1014.6
20260508230536 75 355 5.2 12.2 0.00 0.00 0.00 19 1014.5
20260508230043 75 28 6.1 13.0 0.00 0.00 0.00 19 1014.6
20260508225535 75 347 5.2 13.0 0.00 0.00 0.00 20 1014.7
20260508225035 75 56 7.0 13.0 0.00 0.00 0.00 19 1014.7
20260508224537 75 10 7.8 13.0 0.00 0.00 0.00 19 1014.9
20260508224037 75 56 5.2 13.9 0.00 0.00 0.00 19 1014.9
20260508223533 75 313 7.8 13.9 0.00 0.00 0.00 19 1015.0
20260508223035 75 285 7.0 13.9 0.00 0.00 0.00 20 1014.9
20260508222532 75 283 7.8 13.9 0.00 0.00 0.00 20 1015.0
20260508222031 75 335 7.0 13.9 0.00 0.00 0.00 20 1015.1
20260508221531 75 357 6.1 12.2 0.00 0.00 0.00 19 1015.2
20260508221029 74 1 7.8 15.6 0.00 0.00 0.00 20 1015.3
20260508220528 74 40 7.8 15.6 0.00 0.00 0.00 20 1015.3
20260508215528 74 328 6.1 15.6 0.00 0.00 0.00 21 1015.4
20260508215027 74 12 7.0 13.9 0.00 0.00 0.00 20 1015.5
20260508214525 74 16 6.1 13.9 0.00 0.00 0.00 20 1015.6
20260508214026 74 320 7.8 12.2 0.00 0.00 0.00 20 1015.7
20260508213524 74 27 4.3 14.8 0.00 0.00 0.00 21 1015.6
20260508213024 74 23 8.7 14.8 0.00 0.00 0.00 20 1015.6
20260508212523 73 342 7.8 14.8 0.00 0.00 0.00 21 1015.8
20260508212022 73 304 8.7 14.8 0.00 0.00 0.00 21 1015.8
20260508211524 73 13 7.8 14.8 0.00 0.00 0.00 21 1016.0
20260508211021 73 34 7.8 14.8 0.00 0.00 0.00 20 1016.0
20260508210520 73 23 7.0 16.5 0.00 0.00 0.00 21 1016.1
20260508210020 73 15 7.8 17.4 0.00 0.00 0.00 21 1016.1
20260508205519 72 30 8.7 17.4 0.00 0.00 0.00 21 1016.1
20260508205021 72 23 9.6 15.6 0.00 0.00 0.00 21 1016.2
20260508204521 72 25 9.6 16.5 0.00 0.00 0.00 21 1016.3
20260508204022 73 12 9.6 18.2 0.00 0.00 0.00 21 1016.3
20260508203518 73 32 7.8 21.7 0.00 0.00 0.00 21 1016.3
20260508203018 73 1 7.8 20.0 0.00 0.00 0.00 21 1016.3
20260508202519 72 311 7.8 20.0 0.00 0.00 0.00 22 1016.3
20260508202018 72 8 8.7 16.5 0.00 0.00 0.00 22 1016.4
20260508201521 72 340 7.0 20.9 0.00 0.00 0.00 22 1016.4
20260508201015 72 27 10.4 20.9 0.00 0.00 0.00 21 1016.4
20260508200516 72 345 9.6 18.2 0.00 0.00 0.00 21 1016.5
20260508200016 72 326 9.6 20.9 0.00 0.00 0.00 22 1016.5
20260508195514 72 342 9.6 20.9 0.00 0.00 0.00 22 1016.5
20260508195016 72 10 11.3 20.0 0.00 0.00 0.00 21 1016.4
20260508194514 72 28 10.4 18.2 0.00 0.00 0.00 22 1016.5
20260508194014 71 347 7.0 18.2 0.00 0.00 0.00 22 1016.6
20260508193514 72 18 7.8 14.8 0.00 0.00 0.00 21 1016.6
20260508193013 72 316 6.1 17.4 0.00 0.00 0.00 23 1016.7
20260508192513 71 3 8.7 17.4 0.00 0.00 0.00 23 1016.6
20260508192013 72 24 7.0 15.6 0.00 0.00 0.00 23 1016.8
20260508191517 71 21 7.8 16.5 0.00 0.00 0.00 23 1016.7
20260508191012 71 6 10.4 17.4 0.00 0.00 0.00 22 1016.7
20260508190513 71 10 6.1 17.4 0.00 0.00 0.00 23 1016.8
20260508190013 71 39 7.0 18.2 0.00 0.00 0.00 24 1016.8
20260508185511 71 353 10.4 19.1 0.00 0.00 0.00 22 1016.9
20260508185011 72 340 9.6 19.1 0.00 0.00 0.00 22 1017.0
20260508184516 72 11 8.7 17.4 0.00 0.00 0.00 22 1017.0
20260508184010 71 9 8.7 16.5 0.00 0.00 0.00 23 1017.0
20260508183510 71 20 9.6 17.4 0.00 0.00 0.00 24 1017.2
20260508183011 71 356 8.7 17.4 0.00 0.00 0.00 23 1017.1
20260508182510 71 27 10.4 16.5 0.00 0.00 0.00 22 1017.1
20260508182012 72 297 7.8 16.5 0.00 0.00 0.00 23 1017.2
20260508181510 72 295 7.0 16.5 0.00 0.00 0.00 24 1017.1
20260508181009 72 345 9.6 16.5 0.00 0.00 0.00 23 1017.2
20260508180509 72 30 7.0 15.6 0.00 0.00 0.00 23 1017.2
20260508180010 72 328 7.8 17.4 0.00 0.00 0.00 24 1017.2
20260508175507 71 354 8.7 17.4 0.00 0.00 0.00 24 1017.3
20260508175006 72 311 7.0 15.6 0.00 0.00 0.00 24 1017.3
20260508174516 71 332 8.7 16.5 0.00 0.00 0.00 24 1017.3
20260508174004 71 334 7.0 16.5 0.00 0.00 0.00 25 1017.4
20260508173503 70 14 7.8 15.6 0.00 0.00 0.00 25 1017.5
20260508173001 70 53 7.0 13.0 0.00 0.00 0.00 28 1017.6
20260508172503 69 2 4.3 9.6 0.00 0.00 0.00 29 1017.7
20260508172100 69 24 3.5 12.2 0.00 0.00 0.00 30 1017.7
20260508171600 69 39 8.7 12.2 0.00 0.00 0.00 30 1017.7
20260508171103 69 8 4.3 10.4 0.00 0.00 0.00 31 1017.6
20260508170558 69 55 3.5 10.4 0.00 0.00 0.00 32 1017.6
20260508170100 68 348 3.5 9.6 0.00 0.00 0.00 32 1017.6
20260508165556 68 357 2.6 12.2 0.00 0.00 0.00 32 1017.6
20260508165057 68 9 7.0 12.2 0.00 0.00 0.00 32 1017.6
20260508164557 68 1 6.1 9.6 0.00 0.00 0.00 31 1017.5
20260508164057 68 3 3.5 7.8 0.00 0.00 0.00 31 1017.6
20260508163600 68 336 2.6 7.8 0.00 0.00 0.00 32 1017.6
20260508163056 68 74 2.6 8.7 0.00 0.00 0.00 30 1017.6
20260508162555 68 47 5.2 8.7 0.00 0.00 0.00 31 1017.5
20260508162057 68 27 2.6 7.0 0.00 0.00 0.00 32 1017.5
20260508161556 67 68 3.5 7.0 0.00 0.00 0.00 33 1017.5
20260508161054 67 91 3.5 6.1 0.00 0.00 0.00 32 1017.5
20260508160556 67 39 2.6 6.1 0.00 0.00 0.00 33 1017.5
20260508160055 67 47 3.5 5.2 0.00 0.00 0.00 32 1017.5
20260508155555 67 323 1.7 4.3 0.00 0.00 0.00 32 1017.5
20260508155054 67 49 1.7 5.2 0.00 0.00 0.00 34 1017.5
20260508154553 68 61 0.9 5.2 0.00 0.00 0.00 32 1017.5
20260508154051 68 91 0.0 0.9 0.00 0.00 0.00 33 1017.5
20260508153551 67 358 0.0 0.9 0.00 0.00 0.00 33 1017.5
20260508153051 67 121 0.0 0.9 0.00 0.00 0.00 35 1017.5
20260508152551 66 207 0.0 0.0 0.00 0.00 0.00 34 1017.5
20260508152048 66 115 0.0 2.6 0.00 0.00 0.00 35 1017.5
20260508151547 66 123 0.0 2.6 0.00 0.00 0.00 38 1017.4
20260508151046 66 110 0.0 2.6 0.00 0.00 0.00 37 1017.3
20260508150545 65 126 0.0 2.6 0.00 0.00 0.00 37 1017.3
20260508150044 65 129 0.9 3.5 0.00 0.00 0.00 36 1017.3
20260508145544 65 110 1.7 3.5 0.00 0.00 0.00 36 1017.3
20260508145042 64 123 0.0 2.6 0.00 0.00 0.00 38 1017.3
20260508144541 64 122 0.9 2.6 0.00 0.00 0.00 38 1017.3
20260508144041 64 151 0.0 1.7 0.00 0.00 0.00 38 1017.3
20260508143540 64 115 0.0 1.7 0.00 0.00 0.00 39 1017.3
20260508143040 63 100 0.0 0.0 0.00 0.00 0.00 41 1017.3
20260508142539 63 86 0.0 0.0 0.00 0.00 0.00 41 1017.3
20260508142039 63 102 0.0 0.0 0.00 0.00 0.00 41 1017.2
20260508141548 63 127 0.0 0.0 0.00 0.00 0.00 40 1017.3
20260508141037 63 127 0.0 0.0 0.00 0.00 0.00 41 1017.2
20260508140535 62 127 0.0 0.0 0.00 0.00 0.00 43 1017.2
20260508140037 60 122 0.0 0.0 0.00 0.00 0.00 44 1017.2
20260508135533 59 242 0.0 0.0 0.00 0.00 0.00 44 1017.2
20260508135031 58 242 0.0 0.0 0.00 0.00 0.00 45 1017.2
20260508134533 57 241 0.0 0.0 0.00 0.00 0.00 46 1017.1
20260508134030 57 241 0.0 2.6 0.00 0.00 0.00 47 1017.1
20260508133530 56 240 0.9 2.6 0.00 0.00 0.00 48 1017.0
20260508133029 55 255 0.9 2.6 0.00 0.00 0.00 49 1017.0
20260508132532 54 247 0.9 2.6 0.00 0.00 0.00 50 1017.0
20260508132029 53 245 0.9 2.6 0.00 0.00 0.00 51 1016.9
20260508131528 53 240 0.9 2.6 0.00 0.00 0.00 52 1017.0
20260508131028 52 238 0.9 2.6 0.00 0.00 0.00 52 1016.9
20260508130526 52 219 0.9 2.6 0.00 0.00 0.00 52 1016.8
20260508130029 52 229 0.9 2.6 0.00 0.00 0.00 53 1016.7
20260508125526 52 258 0.0 1.7 0.00 0.00 0.00 53 1016.7
20260508125026 51 242 0.0 0.9 0.00 0.00 0.00 54 1016.7
20260508124525 51 243 0.0 0.9 0.00 0.00 0.00 54 1016.7
20260508124023 52 243 0.0 1.7 0.00 0.00 0.00 53 1016.6
20260508123523 52 243 0.9 1.7 0.00 0.00 0.00 51 1016.5
20260508123022 52 250 0.9 1.7 0.00 0.00 0.00 51 1016.5
20260508122521 52 248 0.9 2.6 0.00 0.00 0.00 51 1016.4
20260508122022 52 272 0.9 2.6 0.00 0.00 0.00 50 1016.4
20260508121531 53 253 0.9 2.6 0.00 0.00 0.00 50 1016.3
20260508121018 53 248 0.9 1.7 0.00 0.00 0.00 49 1016.3
20260508120518 53 252 0.9 2.6 0.00 0.00 0.00 49 1016.3
20260508120018 53 245 0.9 2.6 0.00 0.00 0.00 48 1016.3
20260508115518 53 245 0.9 2.6 0.00 0.00 0.00 47 1016.2
20260508115017 53 255 0.9 2.6 0.00 0.00 0.00 47 1016.2
20260508114517 53 249 0.9 2.6 0.00 0.00 0.00 48 1016.2
20260508114021 53 246 1.7 2.6 0.00 0.00 0.00 48 1016.2
20260508113517 53 263 0.0 1.7 0.00 0.00 0.00 47 1016.2
20260508113017 53 266 0.0 2.6 0.00 0.00 0.00 47 1016.2
20260508112519 53 270 0.9 2.6 0.00 0.00 0.00 47 1016.2
20260508112014 53 236 0.9 2.6 0.00 0.00 0.00 47 1016.2
20260508111515 53 251 1.7 2.6 0.00 0.00 0.00 47 1016.1
20260508111014 53 248 0.9 2.6 0.00 0.00 0.00 47 1016.2
20260508110513 53 272 0.9 1.7 0.00 0.00 0.00 47 1016.2
20260508110017 53 276 0.9 1.7 0.00 0.00 0.00 46 1016.1
20260508105516 53 267 0.9 1.7 0.00 0.00 0.00 46 1016.1
20260508105014 53 257 0.9 1.7 0.00 0.00 0.00 45 1016.1
20260508104512 53 230 0.9 1.7 0.00 0.00 0.00 45 1016.0
20260508104011 53 202 0.0 0.9 0.00 0.00 0.00 45 1015.9
20260508103510 53 237 0.0 0.9 0.00 0.00 0.00 45 1015.8
20260508103010 54 250 0.0 0.9 0.00 0.00 0.00 44 1015.7
20260508102510 54 245 0.0 0.9 0.00 0.00 0.00 44 1015.8
20260508102010 54 245 0.0 1.7 0.00 0.00 0.00 44 1015.9
20260508101510 54 245 0.9 1.7 0.00 0.00 0.00 43 1015.8
20260508101010 54 251 0.9 1.7 0.00 0.00 0.00 43 1015.8
20260508100509 54 257 0.0 0.0 0.00 0.00 0.00 43 1015.8
20260508100008 54 250 0.0 0.9 0.00 0.00 0.00 44 1015.8
20260508095508 54 243 0.0 2.6 0.00 0.00 0.00 44 1015.8
20260508095009 54 240 0.9 2.6 0.00 0.00 0.00 44 1015.7
20260508094508 54 266 0.0 1.7 0.00 0.00 0.00 45 1015.7
20260508094009 53 249 0.9 2.6 0.00 0.00 0.00 46 1015.7
20260508093508 53 244 0.9 2.6 0.00 0.00 0.00 46 1015.6
20260508093008 53 245 0.9 1.7 0.00 0.00 0.00 47 1015.7
20260508092508 53 253 0.9 1.7 0.00 0.00 0.00 48 1015.6
20260508092007 54 243 0.9 1.7 0.00 0.00 0.00 48 1015.6
20260508091509 54 261 0.9 1.7 0.00 0.00 0.00 48 1015.7
20260508091005 54 234 0.9 1.7 0.00 0.00 0.00 47 1015.6
20260508090505 54 283 0.0 0.9 0.00 0.00 0.00 47 1015.6
20260508090004 55 283 0.0 1.7 0.00 0.00 0.00 46 1015.6
20260508085503 55 283 0.0 1.7 0.00 0.00 0.00 46 1015.6
20260508085006 55 283 0.0 0.0 0.00 0.00 0.00 46 1015.7
20260508084503 55 281 0.0 1.7 0.00 0.00 0.00 45 1015.7
20260508084003 55 264 0.0 1.7 0.00 0.00 0.00 45 1015.8
20260508083502 55 249 0.9 2.6 0.00 0.00 0.00 44 1015.7
20260508083002 56 245 0.9 2.6 0.00 0.00 0.00 43 1015.7
20260508082502 57 288 0.0 1.7 0.00 0.00 0.00 41 1015.8
20260508082001 57 288 0.0 3.5 0.00 0.00 0.00 40 1015.7
20260508081504 57 266 1.7 3.5 0.00 0.00 0.00 41 1015.8
20260508081005 56 245 1.7 3.5 0.00 0.00 0.00 44 1015.8
20260508080503 55 242 0.9 3.5 0.00 0.00 0.00 45 1015.8
20260508080001 55 243 0.9 2.6 0.00 0.00 0.00 46 1015.7
20260508075501 55 241 0.9 2.6 0.00 0.00 0.00 46 1015.7
20260508075100 55 258 0.9 1.7 0.00 0.00 0.00 46 1015.8
20260508074600 55 246 0.9 2.6 0.00 0.00 0.00 46 1015.8
20260508074100 56 250 1.7 2.6 0.00 0.00 0.00 45 1015.8
20260508073559 56 254 1.7 3.5 0.00 0.00 0.00 44 1015.8
20260508073058 56 250 2.6 3.5 0.00 0.00 0.00 44 1015.8
20260508072557 56 245 1.7 2.6 0.00 0.00 0.00 44 1015.8
20260508072059 56 234 0.9 1.7 0.00 0.00 0.00 45 1015.8
20260508071559 56 229 0.9 1.7 0.00 0.00 0.00 44 1015.7
20260508071056 56 140 0.0 2.6 0.00 0.00 0.00 42 1015.7
20260508070559 56 133 0.0 0.9 0.00 0.00 0.00 43 1015.7
20260508070056 57 129 0.0 0.9 0.00 0.00 0.00 43 1015.7
20260508065554 57 134 0.0 0.0 0.00 0.00 0.00 43 1015.7
20260508065052 58 231 0.0 0.0 0.00 0.00 0.00 42 1015.8
20260508064554 58 231 0.0 0.0 0.00 0.00 0.00 40 1015.7
20260508064054 58 231 0.0 0.0 0.00 0.00 0.00 41 1015.6
20260508063552 58 263 0.0 1.7 0.00 0.00 0.00 41 1015.6
20260508063102 58 265 0.0 2.6 0.00 0.00 0.00 41 1015.7
20260508062551 58 278 1.7 2.6 0.00 0.00 0.00 41 1015.7
20260508062051 58 248 0.9 3.5 0.00 0.00 0.00 41 1015.6
20260508061555 58 274 1.7 2.6 0.00 0.00 0.00 41 1015.7
20260508061050 58 256 0.9 1.7 0.00 0.00 0.00 41 1015.6
20260508060548 58 296 0.9 1.7 0.00 0.00 0.00 41 1015.6
20260508060054 58 328 0.0 2.6 0.00 0.00 0.00 42 1015.6
20260508055547 58 27 1.7 6.1 0.00 0.00 0.00 43 1015.4
20260508055049 58 41 3.5 6.1 0.00 0.00 0.00 42 1015.4
20260508054547 59 104 0.0 0.0 0.00 0.00 0.00 41 1015.2
20260508054046 59 104 0.0 2.6 0.00 0.00 0.00 40 1015.2
20260508053549 60 271 0.0 3.5 0.00 0.00 0.00 38 1015.2
20260508053047 60 273 1.7 4.3 0.00 0.00 0.00 39 1015.2
20260508052545 60 270 1.7 4.3 0.00 0.00 0.00 39 1015.2
20260508052047 60 240 1.7 4.3 0.00 0.00 0.00 39 1015.2
20260508051546 60 276 1.7 3.5 0.00 0.00 0.00 39 1015.1
20260508051046 60 269 0.9 2.6 0.00 0.00 0.00 40 1015.1
20260508050545 60 269 1.7 2.6 0.00 0.00 0.00 39 1015.1
20260508050047 60 259 0.9 3.5 0.00 0.00 0.00 40 1015.2
20260508045544 60 259 0.9 3.5 0.00 0.00 0.00 40 1015.2
20260508045048 60 278 0.9 1.7 0.00 0.00 0.00 39 1015.2
20260508044545 61 250 0.9 2.6 0.00 0.00 0.00 39 1015.1
20260508044045 61 239 1.7 3.5 0.00 0.00 0.00 38 1015.1
20260508043545 61 281 0.9 3.5 0.00 0.00 0.00 39 1015.2
20260508043044 61 251 1.7 3.5 0.00 0.00 0.00 38 1015.2
20260508042545 61 238 0.9 3.5 0.00 0.00 0.00 38 1015.2
20260508042044 61 239 0.9 3.5 0.00 0.00 0.00 38 1015.2
20260508041544 61 255 1.7 2.6 0.00 0.00 0.00 38 1015.2
20260508041044 61 245 1.7 2.6 0.00 0.00 0.00 38 1015.2
20260508040543 61 244 1.7 3.5 0.00 0.00 0.00 38 1015.2
20260508040050 62 252 0.9 2.6 0.00 0.00 0.00 38 1015.2
20260508035542 62 243 0.9 2.6 0.00 0.00 0.00 37 1015.1
20260508035042 62 262 0.9 2.6 0.00 0.00 0.00 37 1015.0
20260508034543 62 250 0.9 2.6 0.00 0.00 0.00 36 1014.9
20260508034042 63 267 1.7 3.5 0.00 0.00 0.00 36 1014.9
20260508033543 63 253 1.7 3.5 0.00 0.00 0.00 36 1015.0
20260508033042 63 274 1.7 3.5 0.00 0.00 0.00 35 1015.0
20260508032542 64 269 1.7 3.5 0.00 0.00 0.00 35 1014.9
20260508032041 64 245 0.9 2.6 0.00 0.00 0.00 34 1014.8
20260508031541 64 266 0.9 2.6 0.00 0.00 0.00 34 1014.8
20260508031042 65 258 0.9 2.6 0.00 0.00 0.00 33 1014.8
20260508030541 65 247 0.9 2.6 0.00 0.00 0.00 34 1014.7
20260508030041 65 247 0.0 2.6 0.00 0.00 0.00 33 1014.7
20260508025541 66 91 0.0 0.0 0.00 0.00 0.00 32 1014.7
20260508025040 67 91 0.0 0.0 0.00 0.00 0.00 31 1014.6
20260508024548 67 91 0.0 0.0 0.00 0.00 0.00 29 1014.6
20260508024040 67 91 0.0 0.0 0.00 0.00 0.00 30 1014.6
20260508023541 68 91 0.0 0.0 0.00 0.00 0.00 28 1014.6
20260508023040 69 91 0.0 0.0 0.00 0.00 0.00 27 1014.5
20260508022539 70 91 0.0 0.0 0.00 0.00 0.00 26 1014.5
20260508022039 71 91 0.0 0.0 0.00 0.00 0.00 25 1014.5
20260508021540 72 91 0.0 0.0 0.00 0.00 0.00 25 1014.5
20260508021039 72 90 0.0 0.0 0.00 0.00 0.00 24 1014.4
20260508020538 73 90 0.0 0.0 0.00 0.00 0.00 24 1014.5
20260508020039 73 90 0.0 0.0 0.00 0.00 0.00 24 1014.5
20260508015538 73 90 0.0 0.0 0.00 0.00 0.00 23 1014.4
20260508015039 73 75 0.0 1.7 0.00 0.00 0.00 24 1014.5
20260508014542 73 122 0.0 3.5 0.00 0.00 0.00 23 1014.5
20260508014037 73 100 1.7 4.3 0.00 0.00 0.00 23 1014.5
20260508013538 73 131 0.0 4.3 0.00 0.00 0.00 23 1014.5
20260508013040 73 82 0.0 4.3 0.00 0.00 0.00 23 1014.5
20260508012536 73 103 0.9 4.3 0.00 0.00 0.00 22 1014.5
20260508012039 74 95 0.9 2.6 0.00 0.00 0.00 22 1014.5
20260508011537 73 89 0.0 3.5 0.00 0.00 0.00 23 1014.6
20260508011036 73 57 1.7 4.3 0.00 0.00 0.00 22 1014.5
20260508010535 73 61 0.0 5.2 0.00 0.00 0.00 23 1014.5
20260508010036 73 111 2.6 5.2 0.00 0.00 0.00 23 1014.6